QPF
0.00 0.00 0.00 0.00 0.00 0.00 0.00 0.00 0.00 0.00 0.00 0.00 0.00 0.01 0.02 0.04 0.02 0.02 0.02 0.03 0.04 0.03 0.05 0.05 0.06 0.07 0.08 0.07 0.06 0.05 0.05 0.05 0.04 0.06 0.07 0.07 0.09 0.09 0.09 0.09 0.08 0.08 0.07 0.06
0.01 0.00 0.00 0.00 0.00 0.00 0.00 0.00 0.00 0.00 0.00 0.00 0.00 0.02 0.02 0.02 0.02 0.03 0.05 0.05 0.07 0.05 0.03 0.03 0.04 0.04 0.04 0.04 0.03 0.04 0.05 0.06 0.06 0.06 0.07 0.07 0.08 0.08 0.09 0.10 0.10 0.10 0.08 0.06
0.01 0.01 0.00 0.01 0.00 0.00 0.00 0.00 0.00 0.00 0.00 0.00 0.00 0.01 0.01 0.01 0.02 0.04 0.07 0.06 0.06 0.05 0.03 0.02 0.02 0.02 0.02 0.03 0.03 0.04 0.05 0.06 0.05 0.05 0.05 0.05 0.05 0.05 0.06 0.06 0.07 0.07 0.07 0.06
0.01 0.00 0.01 0.01 0.01 0.01 0.00 0.00 0.00 0.00 0.00 0.00 0.01 0.01 0.02 0.02 0.03 0.04 0.04 0.03 0.03 0.03 0.03 0.03 0.02 0.01 0.02 0.02 0.02 0.03 0.04 0.05 0.04 0.03 0.02 0.02 0.03 0.02 0.02 0.02 0.01 0.02 0.03 0.03
0.01 0.01 0.01 0.01 0.02 0.02 0.01 0.01 0.00 0.00 0.00 0.00 0.00 0.03 0.03 0.03 0.03 0.02 0.02 0.02 0.02 0.02 0.03 0.03 0.02 0.02 0.03 0.03 0.02 0.02 0.02 0.04 0.05 0.04 0.03 0.02 0.02 0.02 0.02 0.02 0.02 0.02 0.02 0.02
0.01 0.01 0.01 0.01 0.01 0.02 0.01 0.02 0.01 0.01 0.00 0.00 0.03 0.04 0.05 0.05 0.04 0.03 0.02 0.02 0.02 0.03 0.03 0.03 0.03 0.04 0.04 0.04 0.03 0.03 0.04 0.05 0.05 0.05 0.05 0.04 0.04 0.03 0.03 0.03 0.03 0.04 0.04 0.02
0.02 0.02 0.01 0.01 0.01 0.01 0.01 0.01 0.01 0.01 0.02 0.04 0.05 0.03 0.04 0.05 0.05 0.03 0.02 0.02 0.02 0.03 0.04 0.04 0.07 0.07 0.04 0.05 0.04 0.04 0.04 0.04 0.03 0.04 0.05 0.07 0.08 0.06 0.05 0.05 0.07 0.07 0.08 0.07
0.02 0.02 0.01 0.01 0.01 0.02 0.02 0.02 0.03 0.03 0.04 0.05 0.04 0.02 0.03 0.03 0.04 0.03 0.03 0.02 0.02 0.03 0.05 0.04 0.03 0.04 0.04 0.04 0.05 0.06 0.05 0.04 0.03 0.04 0.06 0.08 0.10 0.09 0.09 0.08 0.08 0.08 0.08 0.08
0.02 0.02 0.02 0.02 0.02 0.02 0.03 0.04 0.06 0.07 0.06 0.04 0.03 0.03 0.03 0.03 0.03 0.02 0.02 0.02 0.03 0.05 0.07 0.06 0.04 0.04 0.04 0.06 0.06 0.05 0.05 0.05 0.05 0.06 0.07 0.08 0.09 0.12 0.15 0.14 0.12 0.11 0.09 0.07
0.03 0.03 0.03 0.04 0.04 0.06 0.09 0.08 0.07 0.08 0.07 0.04 0.03 0.03 0.02 0.02 0.02 0.02 0.02 0.02 0.03 0.04 0.08 0.09 0.07 0.05 0.05 0.09 0.09 0.09 0.08 0.08 0.08 0.09 0.09 0.10 0.09 0.11 0.13 0.15 0.15 0.15 0.13 0.12
0.04 0.05 0.05 0.05 0.06 0.07 0.08 0.08 0.07 0.08 0.07 0.04 0.03 0.02 0.02 0.01 0.02 0.02 0.02 0.02 0.03 0.04 0.05 0.06 0.07 0.07 0.08 0.10 0.10 0.10 0.11 0.09 0.07 0.09 0.09 0.10 0.09 0.08 0.09 0.12 0.14 0.18 0.19 0.19
0.07 0.06 0.06 0.07 0.07 0.07 0.06 0.05 0.06 0.07 0.06 0.04 0.03 0.01 0.01 0.01 0.02 0.03 0.03 0.03 0.04 0.05 0.05 0.06 0.08 0.08 0.08 0.08 0.08 0.09 0.10 0.09 0.08 0.08 0.09 0.09 0.10 0.10 0.10 0.09 0.11 0.11 0.12 0.12
0.08 0.08 0.07 0.07 0.06 0.05 0.05 0.05 0.04 0.04 0.05 0.04 0.04 0.03 0.02 0.02 0.02 0.04 0.04 0.04 0.04 0.04 0.05 0.05 0.07 0.10 0.10 0.09 0.10 0.10 0.10 0.11 0.09 0.09 0.11 0.12 0.12 0.13 0.13 0.13 0.13 0.11 0.11 0.11
0.12 0.11 0.08 0.06 0.05 0.05 0.05 0.05 0.04 0.04 0.05 0.04 0.04 0.03 0.02 0.02 0.03 0.03 0.03 0.04 0.04 0.05 0.06 0.06 0.05 0.06 0.09 0.10 0.10 0.10 0.09 0.10 0.09 0.08 0.08 0.09 0.10 0.13 0.15 0.15 0.16 0.17 0.14 0.13
0.10 0.11 0.09 0.05 0.03 0.03 0.03 0.04 0.04 0.04 0.04 0.03 0.03 0.03 0.03 0.02 0.02 0.02 0.02 0.03 0.03 0.05 0.06 0.05 0.05 0.06 0.07 0.09 0.07 0.08 0.07 0.06 0.06 0.08 0.09 0.10 0.10 0.11 0.12 0.15 0.17 0.17 0.15 0.13
0.07 0.09 0.07 0.04 0.03 0.03 0.02 0.02 0.02 0.03 0.03 0.02 0.02 0.02 0.02 0.01 0.01 0.01 0.02 0.03 0.03 0.03 0.04 0.03 0.04 0.07 0.07 0.08 0.06 0.05 0.05 0.04 0.04 0.04 0.06 0.08 0.09 0.10 0.10 0.13 0.19 0.24 0.22 0.20
0.06 0.07 0.06 0.04 0.04 0.04 0.02 0.02 0.02 0.03 0.03 0.01 0.01 0.01 0.01 0.02 0.02 0.02 0.02 0.02 0.02 0.03 0.03 0.03 0.02 0.04 0.04 0.05 0.05 0.04 0.04 0.03 0.03 0.03 0.04 0.05 0.06 0.08 0.10 0.12 0.14 0.17 0.18 0.18
0.08 0.08 0.07 0.05 0.04 0.04 0.03 0.02 0.02 0.02 0.02 0.01 0.01 0.01 0.01 0.02 0.02 0.02 0.03 0.02 0.01 0.02 0.03 0.04 0.04 0.04 0.03 0.04 0.05 0.05 0.05 0.05 0.04 0.04 0.05 0.05 0.06 0.08 0.10 0.11 0.13 0.12 0.12 0.11
0.10 0.09 0.07 0.05 0.03 0.03 0.03 0.03 0.02 0.02 0.01 0.00 0.01 0.01 0.01 0.02 0.02 0.03 0.03 0.02 0.02 0.03 0.04 0.07 0.06 0.04 0.03 0.03 0.04 0.03 0.03 0.04 0.05 0.06 0.06 0.06 0.05 0.05 0.06 0.06 0.08 0.08 0.08 0.08
0.07 0.06 0.04 0.03 0.02 0.02 0.03 0.02 0.02 0.02 0.01 0.00 0.00 0.01 0.01 0.01 0.01 0.02 0.02 0.01 0.02 0.02 0.03 0.06 0.05 0.03 0.02 0.02 0.03 0.03 0.03 0.03 0.03 0.04 0.05 0.05 0.05 0.04 0.04 0.03 0.04 0.04 0.04 0.04
0.05 0.04 0.03 0.02 0.01 0.01 0.01 0.02 0.02 0.02 0.01 0.01 0.00 0.01 0.01 0.00 0.01 0.01 0.02 0.02 0.02 0.02 0.02 0.03 0.03 0.02 0.02 0.02 0.02 0.02 0.02 0.02 0.03 0.03 0.03 0.04 0.05 0.05 0.04 0.03 0.02 0.02 0.02 0.03
0.03 0.02 0.02 0.01 0.01 0.01 0.01 0.01 0.02 0.02 0.01 0.01 0.01 0.01 0.01 0.00 0.01 0.01 0.02 0.03 0.04 0.03 0.01 0.01 0.01 0.01 0.02 0.01 0.01 0.01 0.02 0.02 0.02 0.02 0.02 0.02 0.03 0.03 0.02 0.01 0.01 0.01 0.01 0.02
0.02 0.02 0.02 0.01 0.01 0.01 0.02 0.03 0.04 0.05 0.03 0.01 0.02 0.02 0.01 0.01 0.01 0.02 0.02 0.03 0.03 0.02 0.01 0.01 0.01 0.02 0.01 0.01 0.01 0.01 0.01 0.01 0.02 0.02 0.02 0.02 0.02 0.01 0.01 0.01 0.01 0.01 0.01 0.01
0.03 0.02 0.02 0.02 0.02 0.02 0.02 0.03 0.04 0.06 0.05 0.04 0.03 0.02 0.03 0.02 0.02 0.02 0.02 0.02 0.02 0.02 0.02 0.01 0.01 0.01 0.01 0.01 0.01 0.02 0.02 0.02 0.02 0.02 0.02 0.02 0.02 0.02 0.01 0.01 0.01 0.01 0.01 0.01
0.04 0.03 0.02 0.01 0.02 0.02 0.02 0.02 0.04 0.07 0.07 0.06 0.05 0.04 0.03 0.03 0.02 0.02 0.02 0.02 0.02 0.02 0.01 0.01 0.01 0.01 0.01 0.00 0.01 0.01 0.01 0.02 0.02 0.01 0.01 0.01 0.02 0.02 0.01 0.01 0.01 0.01 0.01 0.02
0.02 0.02 0.02 0.02 0.02 0.02 0.02 0.02 0.05 0.07 0.08 0.07 0.05 0.03 0.02 0.03 0.03 0.01 0.01 0.01 0.01 0.01 0.01 0.01 0.01 0.00 0.01 0.01 0.01 0.01 0.02 0.02 0.02 0.02 0.02 0.02 0.02 0.02 0.03 0.03 0.03 0.03 0.03 0.03
0.03 0.02 0.03 0.03 0.04 0.04 0.03 0.04 0.05 0.07 0.08 0.06 0.03 0.02 0.02 0.03 0.03 0.02 0.01 0.01 0.00 0.01 0.01 0.01 0.01 0.01 0.01 0.01 0.01 0.01 0.02 0.03 0.03 0.03 0.03 0.03 0.03 0.03 0.03 0.04 0.04 0.04 0.03 0.03
MSLP
1004.69 1004.78 1005.00 1005.30 1005.62 1005.90 1006.08 1006.11 1005.97 1005.67 1005.25 1004.76 1004.29 1003.90 1003.64 1003.56 1003.64 1003.87 1004.20 1004.57 1004.93 1005.23 1005.45 1005.59 1005.68 1005.74 1005.81 1005.94 1006.16 1006.47 1006.89 1007.39 1007.96 1008.56 1009.18 1009.80 1010.42 1011.02 1011.61 1012.20 1012.78 1013.35 1013.90 1014.43
1004.70 1004.62 1004.61 1004.65 1004.71 1004.77 1004.78 1004.73 1004.61 1004.42 1004.19 1003.95 1003.73 1003.57 1003.51 1003.54 1003.68 1003.89 1004.15 1004.43 1004.70 1004.94 1005.14 1005.30 1005.46 1005.62 1005.81 1006.06 1006.37 1006.75 1007.19 1007.67 1008.18 1008.71 1009.25 1009.78 1010.32 1010.85 1011.39 1011.92 1012.46 1013.00 1013.52 1014.01
1004.68 1004.45 1004.25 1004.07 1003.92 1003.79 1003.67 1003.57 1003.47 1003.40 1003.34 1003.32 1003.33 1003.39 1003.49 1003.63 1003.80 1003.99 1004.18 1004.37 1004.55 1004.72 1004.90 1005.09 1005.30 1005.56 1005.86 1006.22 1006.62 1007.05 1007.50 1007.96 1008.42 1008.88 1009.32 1009.77 1010.22 1010.68 1011.16 1011.65 1012.14 1012.64 1013.12 1013.58
1004.58 1004.26 1003.93 1003.59 1003.28 1003.01 1002.80 1002.67 1002.61 1002.64 1002.75 1002.91 1003.13 1003.36 1003.60 1003.83 1004.02 1004.18 1004.31 1004.41 1004.51 1004.62 1004.77 1004.97 1005.24 1005.57 1005.96 1006.39 1006.85 1007.32 1007.77 1008.21 1008.61 1008.99 1009.36 1009.73 1010.11 1010.51 1010.93 1011.38 1011.84 1012.30 1012.74 1013.16
1004.40 1004.03 1003.62 1003.19 1002.79 1002.44 1002.18 1002.05 1002.04 1002.17 1002.41 1002.74 1003.11 1003.49 1003.83 1004.12 1004.33 1004.47 1004.54 1004.58 1004.60 1004.67 1004.78 1004.98 1005.27 1005.64 1006.07 1006.55 1007.04 1007.51 1007.95 1008.34 1008.69 1009.01 1009.32 1009.63 1009.96 1010.32 1010.71 1011.12 1011.55 1011.98 1012.39 1012.76
1004.12 1003.74 1003.31 1002.86 1002.42 1002.06 1001.80 1001.70 1001.75 1001.97 1002.32 1002.77 1003.27 1003.75 1004.18 1004.52 1004.74 1004.86 1004.89 1004.88 1004.85 1004.87 1004.95 1005.13 1005.41 1005.77 1006.21 1006.68 1007.15 1007.59 1007.99 1008.33 1008.63 1008.90 1009.16 1009.44 1009.74 1010.09 1010.47 1010.87 1011.29 1011.69 1012.06 1012.39
1003.75 1003.40 1003.00 1002.57 1002.17 1001.85 1001.64 1001.60 1001.73 1002.03 1002.47 1003.02 1003.60 1004.16 1004.65 1005.02 1005.26 1005.37 1005.38 1005.33 1005.27 1005.24 1005.28 1005.42 1005.65 1005.98 1006.36 1006.78 1007.19 1007.56 1007.90 1008.18 1008.42 1008.65 1008.88 1009.14 1009.45 1009.80 1010.19 1010.60 1011.01 1011.40 1011.74 1012.03
1003.32 1003.03 1002.70 1002.36 1002.05 1001.81 1001.70 1001.74 1001.95 1002.33 1002.85 1003.46 1004.11 1004.71 1005.24 1005.64 1005.89 1006.01 1006.02 1005.95 1005.86 1005.79 1005.78 1005.86 1006.02 1006.26 1006.55 1006.86 1007.16 1007.44 1007.68 1007.88 1008.07 1008.25 1008.47 1008.73 1009.06 1009.43 1009.85 1010.29 1010.71 1011.10 1011.42 1011.66
1002.90 1002.68 1002.46 1002.24 1002.05 1001.95 1001.96 1002.11 1002.42 1002.87 1003.45 1004.11 1004.78 1005.42 1005.96 1006.38 1006.65 1006.78 1006.79 1006.72 1006.61 1006.51 1006.45 1006.45 1006.51 1006.63 1006.79 1006.96 1007.12 1007.26 1007.38 1007.49 1007.60 1007.75 1007.95 1008.22 1008.57 1008.98 1009.44 1009.92 1010.36 1010.76 1011.07 1011.30
1002.52 1002.41 1002.31 1002.24 1002.22 1002.27 1002.43 1002.70 1003.10 1003.62 1004.24 1004.92 1005.61 1006.25 1006.80 1007.23 1007.51 1007.66 1007.69 1007.62 1007.51 1007.38 1007.26 1007.17 1007.12 1007.10 1007.10 1007.10 1007.09 1007.08 1007.06 1007.05 1007.09 1007.18 1007.37 1007.65 1008.02 1008.48 1008.98 1009.49 1009.97 1010.39 1010.72 1010.94
1002.24 1002.25 1002.31 1002.41 1002.57 1002.79 1003.09 1003.49 1003.98 1004.55 1005.20 1005.88 1006.56 1007.18 1007.72 1008.15 1008.45 1008.61 1008.67 1008.62 1008.51 1008.36 1008.19 1008.01 1007.84 1007.68 1007.50 1007.33 1007.14 1006.95 1006.79 1006.66 1006.61 1006.65 1006.80 1007.08 1007.48 1007.97 1008.51 1009.06 1009.59 1010.04 1010.39 1010.62
1002.10 1002.25 1002.48 1002.77 1003.10 1003.49 1003.94 1004.44 1005.00 1005.61 1006.26 1006.92 1007.57 1008.16 1008.68 1009.10 1009.40 1009.59 1009.67 1009.65 1009.55 1009.38 1009.17 1008.93 1008.65 1008.35 1008.02 1007.67 1007.31 1006.96 1006.65 1006.41 1006.27 1006.25 1006.38 1006.65 1007.05 1007.56 1008.13 1008.72 1009.28 1009.77 1010.15 1010.42
1002.11 1002.42 1002.81 1003.28 1003.79 1004.34 1004.90 1005.50 1006.11 1006.73 1007.36 1007.99 1008.59 1009.13 1009.62 1010.02 1010.33 1010.53 1010.64 1010.65 1010.57 1010.41 1010.17 1009.88 1009.51 1009.10 1008.64 1008.15 1007.65 1007.17 1006.74 1006.40 1006.18 1006.10 1006.20 1006.45 1006.85 1007.37 1007.96 1008.57 1009.15 1009.67 1010.09 1010.40
1002.26 1002.73 1003.29 1003.93 1004.59 1005.27 1005.94 1006.59 1007.23 1007.85 1008.44 1009.02 1009.55 1010.05 1010.49 1010.86 1011.17 1011.39 1011.53 1011.57 1011.52 1011.38 1011.14 1010.82 1010.41 1009.92 1009.37 1008.78 1008.18 1007.61 1007.10 1006.69 1006.41 1006.30 1006.36 1006.60 1006.99 1007.50 1008.09 1008.70 1009.30 1009.83 1010.28 1010.63
1002.55 1003.17 1003.89 1004.66 1005.45 1006.23 1006.97 1007.67 1008.31 1008.91 1009.46 1009.97 1010.44 1010.87 1011.27 1011.62 1011.92 1012.15 1012.32 1012.40 1012.39 1012.27 1012.05 1011.73 1011.30 1010.79 1010.20 1009.56 1008.92 1008.30 1007.75 1007.31 1007.01 1006.88 1006.93 1007.16 1007.53 1008.03 1008.60 1009.20 1009.78 1010.32 1010.77 1011.14
1002.96 1003.71 1004.56 1005.45 1006.33 1007.18 1007.97 1008.68 1009.32 1009.88 1010.38 1010.83 1011.24 1011.62 1011.97 1012.30 1012.59 1012.84 1013.02 1013.14 1013.16 1013.09 1012.90 1012.60 1012.19 1011.68 1011.10 1010.47 1009.83 1009.22 1008.69 1008.27 1007.98 1007.86 1007.91 1008.13 1008.49 1008.96 1009.50 1010.07 1010.62 1011.13 1011.58 1011.94
1003.48 1004.35 1005.29 1006.26 1007.20 1008.10 1008.91 1009.63 1010.24 1010.77 1011.23 1011.63 1011.99 1012.32 1012.64 1012.94 1013.22 1013.47 1013.67 1013.81 1013.87 1013.83 1013.68 1013.42 1013.05 1012.59 1012.05 1011.47 1010.89 1010.34 1009.86 1009.49 1009.26 1009.17 1009.24 1009.47 1009.81 1010.25 1010.75 1011.27 1011.78 1012.24 1012.65 1012.99
1004.12 1005.06 1006.05 1007.07 1008.05 1008.97 1009.78 1010.50 1011.10 1011.61 1012.03 1012.39 1012.71 1013.01 1013.30 1013.58 1013.85 1014.10 1014.31 1014.47 1014.55 1014.54 1014.42 1014.21 1013.89 1013.49 1013.02 1012.52 1012.03 1011.57 1011.18 1010.90 1010.74 1010.71 1010.82 1011.06 1011.39 1011.80 1012.25 1012.71 1013.15 1013.55 1013.90 1014.20
1004.88 1005.84 1006.86 1007.88 1008.87 1009.79 1010.61 1011.31 1011.91 1012.40 1012.81 1013.16 1013.46 1013.74 1014.01 1014.28 1014.53 1014.77 1014.97 1015.13 1015.22 1015.22 1015.14 1014.96 1014.70 1014.36 1013.98 1013.58 1013.19 1012.84 1012.56 1012.38 1012.31 1012.35 1012.50 1012.76 1013.09 1013.46 1013.86 1014.26 1014.63 1014.96 1015.24 1015.47
1005.74 1006.69 1007.70 1008.71 1009.68 1010.58 1011.39 1012.10 1012.69 1013.19 1013.60 1013.94 1014.25 1014.52 1014.78 1015.03 1015.27 1015.49 1015.68 1015.82 1015.90 1015.91 1015.83 1015.69 1015.47 1015.20 1014.90 1014.60 1014.31 1014.08 1013.91 1013.83 1013.85 1013.96 1014.16 1014.44 1014.76 1015.10 1015.46 1015.79 1016.09 1016.35 1016.56 1016.73
1006.67 1007.60 1008.56 1009.54 1010.48 1011.36 1012.16 1012.86 1013.46 1013.96 1014.39 1014.75 1015.06 1015.34 1015.60 1015.84 1016.06 1016.26 1016.42 1016.54 1016.60 1016.60 1016.53 1016.40 1016.22 1016.01 1015.79 1015.57 1015.38 1015.25 1015.19 1015.20 1015.29 1015.47 1015.70 1015.99 1016.30 1016.62 1016.93 1017.20 1017.44 1017.64 1017.79 1017.91
1007.67 1008.54 1009.45 1010.37 1011.27 1012.12 1012.90 1013.59 1014.20 1014.72 1015.17 1015.55 1015.88 1016.17 1016.43 1016.66 1016.87 1017.04 1017.18 1017.27 1017.31 1017.29 1017.23 1017.11 1016.97 1016.80 1016.64 1016.50 1016.39 1016.35 1016.36 1016.45 1016.60 1016.82 1017.08 1017.37 1017.67 1017.96 1018.23 1018.46 1018.65 1018.79 1018.90 1018.97
1008.70 1009.50 1010.35 1011.20 1012.05 1012.86 1013.62 1014.30 1014.91 1015.45 1015.91 1016.32 1016.67 1016.97 1017.24 1017.46 1017.66 1017.81 1017.93 1018.00 1018.02 1018.00 1017.93 1017.84 1017.72 1017.60 1017.49 1017.40 1017.37 1017.38 1017.46 1017.59 1017.79 1018.03 1018.30 1018.58 1018.86 1019.13 1019.36 1019.55 1019.70 1019.81 1019.89 1019.93
1009.74 1010.47 1011.24 1012.03 1012.82 1013.58 1014.30 1014.97 1015.58 1016.13 1016.61 1017.03 1017.39 1017.71 1017.98 1018.22 1018.40 1018.55 1018.66 1018.72 1018.74 1018.72 1018.66 1018.59 1018.50 1018.42 1018.35 1018.32 1018.33 1018.39 1018.50 1018.67 1018.88 1019.12 1019.38 1019.65 1019.91 1020.14 1020.35 1020.51 1020.64 1020.73 1020.78 1020.82
1010.76 1011.42 1012.12 1012.84 1013.57 1014.28 1014.97 1015.62 1016.22 1016.76 1017.25 1017.68 1018.06 1018.39 1018.67 1018.91 1019.10 1019.25 1019.36 1019.43 1019.46 1019.45 1019.43 1019.38 1019.33 1019.29 1019.27 1019.27 1019.32 1019.40 1019.53 1019.71 1019.91 1020.14 1020.38 1020.62 1020.85 1021.06 1021.24 1021.38 1021.49 1021.56 1021.61 1021.64
1011.75 1012.35 1012.98 1013.64 1014.31 1014.98 1015.63 1016.25 1016.83 1017.36 1017.85 1018.29 1018.68 1019.02 1019.31 1019.56 1019.77 1019.93 1020.06 1020.14 1020.20 1020.22 1020.23 1020.22 1020.21 1020.21 1020.22 1020.26 1020.33 1020.43 1020.56 1020.72 1020.91 1021.11 1021.32 1021.53 1021.72 1021.90 1022.05 1022.18 1022.27 1022.34 1022.38 1022.41
1012.69 1013.25 1013.83 1014.44 1015.06 1015.68 1016.29 1016.89 1017.45 1017.97 1018.46 1018.90 1019.29 1019.64 1019.95 1020.21 1020.43 1020.61 1020.76 1020.87 1020.96 1021.02 1021.06 1021.10 1021.13 1021.16 1021.20 1021.26 1021.34 1021.44 1021.56 1021.70 1021.86 1022.02 1022.20 1022.36 1022.53 1022.67 1022.80 1022.91 1022.99 1023.05 1023.09 1023.10
Thickness
5695 5706 5710 5714 5715 5713 5711 5708 5703 5711 5718 5734 5743 5748 5751 5753 5754 5754 5754 5754 5753 5751 5751 5751 5750 5748 5748 5746 5745 5743 5740 5738 5736 5734 5732 5730 5728 5726 5725 5723 5722 5721 5719 5718
5690 5702 5708 5708 5714 5715 5717 5716 5716 5719 5722 5739 5742 5745 5746 5747 5748 5748 5748 5750 5750 5749 5748 5748 5747 5746 5745 5744 5743 5742 5739 5737 5735 5733 5730 5729 5727 5725 5723 5721 5720 5719 5718 5716
5674 5690 5698 5692 5706 5712 5715 5719 5720 5717 5727 5735 5735 5737 5739 5742 5744 5744 5745 5747 5747 5747 5746 5746 5746 5745 5744 5743 5742 5739 5738 5736 5734 5732 5730 5728 5726 5724 5722 5720 5718 5717 5716 5715
5663 5676 5668 5692 5714 5718 5715 5717 5721 5724 5728 5731 5733 5735 5738 5740 5741 5742 5743 5744 5745 5746 5745 5744 5744 5744 5743 5741 5739 5738 5736 5734 5733 5731 5729 5727 5725 5723 5721 5719 5718 5717 5715 5714
5652 5658 5671 5693 5707 5711 5709 5709 5719 5720 5724 5727 5731 5731 5731 5737 5739 5741 5742 5742 5743 5744 5744 5743 5743 5742 5740 5738 5736 5735 5733 5732 5731 5730 5727 5725 5723 5722 5720 5718 5717 5716 5715 5713
5650 5655 5659 5685 5706 5714 5710 5701 5717 5719 5719 5722 5725 5717 5721 5732 5735 5737 5739 5739 5739 5740 5741 5740 5740 5739 5737 5735 5733 5732 5732 5732 5731 5730 5727 5725 5724 5722 5721 5719 5717 5715 5713 5712
5648 5653 5665 5689 5702 5708 5690 5699 5715 5717 5717 5717 5717 5718 5722 5727 5729 5731 5732 5734 5736 5736 5736 5736 5735 5735 5732 5731 5730 5731 5731 5730 5729 5728 5727 5726 5724 5722 5720 5717 5715 5713 5711 5710
5642 5647 5660 5687 5694 5692 5696 5706 5709 5710 5712 5712 5713 5715 5717 5719 5721 5723 5725 5727 5729 5729 5729 5730 5731 5730 5727 5727 5729 5728 5728 5727 5726 5725 5725 5724 5721 5719 5717 5715 5712 5710 5708 5706
5646 5653 5668 5679 5685 5692 5697 5700 5702 5704 5707 5709 5709 5709 5710 5711 5712 5715 5717 5719 5722 5723 5723 5723 5725 5725 5723 5724 5724 5724 5723 5723 5722 5722 5721 5720 5718 5716 5713 5711 5709 5707 5705 5703
5645 5655 5664 5673 5680 5687 5692 5695 5697 5700 5702 5703 5702 5702 5702 5703 5704 5706 5709 5711 5713 5715 5715 5715 5717 5718 5719 5719 5720 5719 5718 5718 5718 5717 5716 5716 5714 5712 5710 5707 5705 5704 5702 5700
5641 5649 5659 5666 5672 5678 5683 5687 5689 5692 5694 5694 5695 5695 5695 5696 5697 5699 5701 5703 5705 5706 5707 5708 5710 5711 5713 5714 5715 5714 5713 5712 5712 5712 5712 5710 5708 5706 5705 5704 5703 5702 5700 5698
5637 5646 5651 5656 5664 5671 5674 5677 5679 5681 5683 5684 5686 5686 5688 5688 5689 5691 5693 5695 5696 5697 5699 5700 5702 5704 5705 5707 5708 5708 5706 5706 5706 5706 5705 5703 5701 5698 5696 5697 5696 5695 5694 5693
5638 5644 5647 5652 5657 5662 5665 5668 5671 5673 5675 5675 5675 5676 5678 5679 5680 5682 5684 5686 5688 5689 5691 5693 5694 5696 5697 5699 5701 5701 5699 5698 5698 5698 5697 5697 5695 5693 5690 5687 5686 5685 5684 5684
5635 5639 5640 5644 5648 5652 5656 5659 5662 5663 5664 5665 5665 5666 5668 5670 5671 5673 5675 5677 5680 5681 5682 5684 5685 5687 5688 5690 5692 5691 5691 5690 5690 5690 5690 5689 5688 5686 5684 5682 5679 5676 5672 5671
5628 5633 5636 5639 5641 5644 5647 5650 5652 5652 5653 5654 5656 5657 5659 5660 5661 5662 5665 5668 5671 5672 5673 5674 5676 5677 5679 5681 5682 5681 5681 5681 5681 5681 5681 5680 5678 5676 5675 5672 5670 5666 5664 5661
5621 5625 5629 5631 5633 5635 5638 5640 5642 5642 5643 5644 5645 5646 5648 5650 5651 5653 5655 5658 5660 5661 5662 5664 5665 5667 5670 5672 5673 5672 5672 5672 5673 5672 5672 5670 5668 5666 5664 5662 5659 5656 5654 5651
5616 5616 5619 5622 5625 5627 5629 5631 5633 5633 5634 5635 5636 5637 5639 5641 5642 5643 5644 5646 5649 5650 5652 5654 5656 5659 5661 5662 5663 5663 5662 5662 5662 5662 5660 5658 5656 5654 5652 5650 5647 5643 5640 5637
5612 5614 5615 5617 5619 5619 5620 5623 5624 5624 5625 5626 5628 5629 5629 5630 5631 5632 5633 5636 5639 5641 5641 5643 5646 5649 5651 5651 5652 5651 5651 5650 5649 5648 5646 5644 5642 5640 5638 5635 5632 5629 5626 5623
5606 5608 5608 5609 5610 5612 5613 5614 5614 5616 5617 5619 5619 5619 5619 5620 5621 5622 5624 5626 5628 5629 5629 5632 5634 5637 5638 5639 5640 5639 5638 5636 5635 5632 5630 5628 5627 5624 5622 5620 5617 5614 5612 5609
5598 5600 5602 5603 5604 5605 5606 5606 5607 5608 5609 5610 5611 5611 5611 5612 5613 5614 5615 5614 5613 5615 5618 5621 5623 5624 5625 5626 5627 5626 5624 5622 5620 5617 5615 5613 5611 5608 5606 5604 5601 5599 5595 5592
5592 5594 5595 5595 5596 5597 5598 5599 5600 5600 5600 5602 5603 5602 5602 5602 5603 5604 5605 5604 5603 5606 5608 5610 5611 5611 5612 5612 5613 5612 5610 5608 5605 5602 5600 5598 5595 5593 5590 5588 5585 5582 5580 5577
5586 5587 5588 5588 5589 5589 5589 5591 5592 5593 5593 5594 5594 5594 5593 5592 5593 5593 5593 5592 5592 5595 5598 5598 5598 5598 5599 5599 5598 5597 5595 5593 5590 5587 5585 5582 5580 5577 5575 5572 5570 5567 5564 5561
5579 5580 5581 5581 5581 5581 5581 5582 5584 5585 5585 5585 5585 5585 5584 5583 5583 5585 5582 5581 5583 5585 5586 5585 5585 5586 5587 5586 5584 5583 5580 5578 5575 5573 5570 5567 5565 5562 5559 5557 5554 5551 5548 5545
5571 5572 5572 5573 5574 5574 5573 5573 5574 5575 5575 5575 5575 5575 5575 5575 5573 5572 5573 5572 5573 5574 5573 5572 5573 5574 5574 5573 5570 5568 5566 5563 5561 5558 5556 5553 5550 5547 5544 5541 5538 5536 5533 5531
5563 5564 5565 5567 5566 5565 5565 5565 5566 5566 5566 5565 5565 5565 5565 5566 5564 5563 5563 5563 5563 5563 5562 5561 5561 5561 5560 5558 5556 5554 5552 5549 5547 5544 5542 5539 5536 5533 5530 5527 5524 5522 5519 5516
5558 5558 5558 5558 5558 5558 5559 5559 5559 5557 5557 5556 5555 5555 5555 5555 5555 5555 5554 5553 5553 5552 5551 5549 5549 5548 5547 5545 5542 5540 5538 5535 5533 5530 5528 5525 5522 5519 5516 5513 5510 5507 5504 5501
5551 5551 5551 5550 5550 5551 5552 5551 5550 5548 5548 5548 5546 5545 5546 5546 5545 5545 5544 5543 5542 5540 5539 5537 5536 5535 5533 5531 5528 5526 5524 5522 5519 5517 5514 5511 5508 5505 5502 5499 5496 5493 5490 5487